Location: Quail Creek Observatory
(32.9410°N, 97.1240°W)
Time: 15:21:58
(UTC-05:00)

Daily predictions for brighter satellites

Satellite Brightness Start Highest point End
(mag) Time Altitude Azimuth Time Altitude Azimuth Time Altitude Azimuth
NOSS 3-1 (C) 4.3 20:29:02 10° SW 20:34:32 54° NW 20:40:38 10° NNE
Cosmos 1812 2.8 20:32:44 10° N 20:36:33 55° E 20:40:20 10° SSE
Meteor 1-25 Rocket 4.3 20:31:24 10° S 20:37:13 77° E 20:43:03 10° N
Cosmos 2360 4.2 20:32:09 10° S 20:37:48 71° ESE 20:43:29 10° NNE
Cosmos 1092 Rocket 4.1 20:31:48 10° S 20:37:55 82° W 20:44:07 10° N
Meteor 1-14 Rocket 4.4 20:32:32 10° S 20:38:14 80° W 20:43:51 10° N
SeaSat 1 2.7 20:35:46 10° NE 20:40:29 45° ESE 20:45:09 10° S
Spot 2 Rocket 4.2 20:36:22 10° SE 20:40:59 36° ENE 20:45:35 10° N
SJ-6B 3.0 20:39:04 10° S 20:43:05 83° W 20:47:11 10° NNW
Cosmos 2297 Rocket 3.0 20:38:39 10° NNW 20:44:09 53° WSW 20:49:37 10° S
H-2A ROCKET BODY 3.3 20:46:39 10° S 20:47:02 10° S 20:47:27 10° S
Lacrosse 5 3.1 20:46:20 10° SSE 20:49:54 20° ESE 20:53:30 10° ENE
Meteor 1-18 Rocket 4.3 20:46:34 10° N 20:52:30 73° E 20:58:24 10° SSE
ERBS 4.0 20:52:53 10° WSW 20:56:09 38° NW 20:59:26 10° NNE
Cosmos 1782 Rocket 4.1 20:52:28 10° SSW 20:56:45 61° W 21:01:03 10° N
Resurs 01 Rocket 1.7 20:52:55 10° SSE 20:57:17 60° ENE 21:01:41 10° N
Cosmos 1553 Rocket 4.5 20:53:27 10° NNE 20:59:07 38° E 21:04:42 10° SE
Cosmos 1939 Rocket 4.1 20:57:18 14° ESE 20:59:47 24° ENE 21:03:00 10° NNE
Cosmos 1461 4.5 20:58:23 10° NW 21:02:35 38° WSW 21:06:51 10° S
Cosmos 921 Rocket 3.7 20:58:33 10° SSW 21:02:40 56° WNW 21:06:47 10° N
Cosmos 44 4.0 21:00:04 10° N 21:04:05 32° ENE 21:06:54 17° ESE
Cosmos 2322 Rocket 2.5 20:58:54 10° S 21:04:16 44° ESE 21:09:40 10° NE
Tiangong 1 3.7 21:06:55 10° NNW 21:07:47 11° N 21:08:39 10° NNE
Cosmos 1536 4.0 21:06:18 17° SE 21:08:10 23° E 21:11:25 10° NE
Okean 1 3.2 21:04:14 10° N 21:08:12 69° E 21:12:09 10° SSE
Cosmos 2263 Rocket 3.9 21:05:59 10° NNE 21:09:36 17° ENE 21:11:56 14° E
Envisat 3.2 21:04:58 10° SSE 21:09:54 53° ENE 21:14:50 10° N
Cosmos 1441 Rocket 3.7 21:08:37 10° NNW 21:12:17 58° W 21:15:57 10° S
Cosmos 2151 Rocket 3.6 21:08:15 10° S 21:12:33 57° E 21:16:51 10° NNE
GOES 2 Rocket 4.4 21:07:47 10° W 21:12:52 34° SSW 21:15:48 17° SE
Lacrosse 5 rocket 2.3 21:10:54 10° NNW 21:14:10 29° NE 21:15:50 21° E
SL-16 R/B 2.3 21:08:44 10° S 21:14:14 55° ESE 21:19:45 10° NNE
Helios 1B rocket 3.3 21:12:58 10° NE 21:16:32 28° E 21:18:03 22° SE
Cosmos 1975 Rocket 3.6 21:13:09 10° NNW 21:17:33 60° W 21:21:53 10° S
NOSS 2-3 (D) 3.8 21:17:52 10° SSW 21:22:17 55° ESE 21:27:11 10° NE
OAO 1 Rocket 4.5 21:17:23 10° WSW 21:22:39 61° SSE 21:26:22 20° E
USA 267 4.0 21:17:26 10° SSE 21:23:43 49° SW 21:30:02 10° NW
GPS 2-05 Rocket1 3.3 21:21:31 10° W 21:24:49 52° N 21:26:29 24° ENE
Skynet4D Del rocket 4.3 21:21:12 10° WSW 21:27:52 50° S 21:31:07 26° ESE
Cosmos 1633 4.4 21:26:51 10° SSW 21:30:08 33° W 21:33:27 10° NNW
CZ-4C R/B 3.9 21:23:01 10° NW 21:30:08 46° WSW 21:37:44 10° S
SWAS 4.3 21:25:53 10° NNW 21:30:10 80° ENE 21:32:25 27° SSE
YAOGAN 6 3.0 21:32:01 38° E 21:32:30 40° ENE 21:35:50 10° N
STPSAT 2 (USA 217) 4.5 21:29:51 10° NNW 21:34:23 83° ENE 21:36:46 27° SSE
Cosmos 1655 Rocket 4.5 21:28:15 10° SSW 21:34:27 64° W 21:40:43 10° N
USA 186 3.0 21:32:24 11° S 21:35:23 43° W 21:38:37 10° NNW
Cosmos 2360 Rocket 2.8 21:37:59 30° SE 21:39:01 33° ESE 21:43:59 10° NE
SJ-11-01 4.2 21:36:56 26° SSE 21:39:33 73° ENE 21:44:12 10° N
Cosmos 1980 Rocket 4.4 21:35:35 10° WSW 21:40:14 27° WNW 21:44:55 10° N
Meteor 1-5 Rocket 4.3 21:37:30 23° SSE 21:40:31 48° E 21:45:35 10° NNE
Cosmos 1536 Rocket 3.4 21:37:29 10° N 21:41:49 69° E 21:43:27 36° SSE
Meteor 1-13 Rocket 4.3 21:41:12 10° N 21:47:12 87° E 21:51:19 21° S
ATLAS 2AS CENTAUR R/B 2.9 21:40:42 10° SSW 21:48:07 70° ESE 21:56:06 10° NE
Helios 1A 3.0 21:48:27 49° SE 21:49:19 63° ENE 21:53:32 10° N
Cosmos 1850 Rocket 4.3 21:44:41 10° N 21:49:51 49° ENE 21:51:06 41° ESE
Meteor 2-4 Rocket 3.6 21:48:30 10° N 21:54:03 70° E 21:56:19 37° SSE
NOAA 11 4.4 21:55:47 42° ESE 21:57:00 50° ENE 22:02:17 10° N
Cosmos 44 Rocket 3.6 21:53:34 10° NW 21:58:16 61° WSW 21:59:58 37° S
Atlas Centaur 2 2.7 21:50:36 10° W 21:58:37 73° S 22:01:14 41° ESE
NOSS 2-3 (E) 4.3 21:54:53 10° SW 21:59:23 59° WNW 22:04:29 10° NNE
Spot 1 4.4 22:00:04 48° SE 22:01:28 74° ENE 22:06:35 10° N
Cosmos 883 Rocket 4.3 22:08:00 10° N 22:14:08 79° E 22:15:49 50° SSE
DELTA 2 R/B (1) 3.4 22:11:49 10° WNW 22:17:28 86° SSW 22:18:06 71° SE
Cosmos 1244 Rocket 4.5 22:19:39 55° E 22:19:42 55° E 22:25:40 10° NNE
Delta 2 Rocket 3.9 22:15:33 10° WSW 22:18:58 56° SW 22:18:58 56° SW
SPOT 5 3.8 22:25:52 37° NE 22:25:52 37° NE 22:29:14 10° N
MetOp-A 4.0 22:27:21 78° E 22:27:24 78° ENE 22:32:45 10° N
Lacrosse 5 2.6 22:27:34 10° SW 22:32:30 51° NW 22:37:26 10° NNE
Okean 1 Rocket 4.3 22:35:39 34° WSW 22:36:29 38° W 22:40:33 10° NNW
H-2A R/B 2.9 22:41:34 39° NNE 22:41:34 39° NNE 22:44:58 10° N
ARGOS 3.3 22:45:59 70° NNW 22:45:59 70° NNW 22:50:43 10° NNW
ERS-1 Rocket 3.4 22:46:16 57° W 22:46:16 57° W 22:50:57 10° NNW
Cosmos 2315 Rocket 4.0 22:41:48 10° N 22:48:02 75° W 22:48:35 70° SW
USA 238 DEB 4.5 22:43:10 10° NNW 22:49:46 39° NE 22:49:51 39° NE
USA 238 4.5 22:43:17 10° NNW 22:49:52 39° NE 22:49:57 39° NE
Lacrosse 5 rocket 3.8 22:50:17 10° WNW 22:51:33 16° W 22:51:33 16° W
Cosmos 1607 3.9 22:46:44 10° NNW 22:52:58 82° N 22:52:58 82° N
Cosmos 2263 Rocket 2.6 22:48:19 10° NNW 22:53:38 58° W 22:53:38 58° W
Cosmos 1844 Rocket 4.3 22:57:20 10° N 23:00:27 25° NNE 23:00:27 25° NNE
Cosmos 2322 4.5 23:05:53 47° W 23:06:26 48° WNW 23:11:55 10° N
Cosmos 2219 Rocket 4.5 23:14:24 14° NNE 23:14:24 14° NNE 23:15:06 10° NNE
ATLAS 3B R/B 3.0 23:05:38 10° NNW 23:11:07 54° NNE 23:11:07 54° NNE
COSMOS 2428 4.1 23:17:01 30° NNE 23:17:01 30° NNE 23:19:50 10° NNE
Terra 4.0 23:24:37 20° N 23:24:37 20° N 23:26:08 10° N
Cosmos 2360 Rocket 4.0 23:19:31 16° WSW 23:22:58 28° WNW 23:27:44 10° N
Atlas Centaur 2 4.3 23:41:00 10° W 23:43:52 23° W 23:43:52 23° W
